Location: Unspecified
(0.0000°N, 0.0000°E)
Time: 20:47:14
(UTC+00:00)

Daily predictions for brighter satellites

Satellite Brightness Start Highest point End
(mag) Time Altitude Azimuth Time Altitude Azimuth Time Altitude Azimuth
ARIANE 5 R/B 3.7 18:00:03 10° WSW 18:04:03 55° S 18:22:25 10° E
Cosmos 1943 4.1 18:23:29 10° NNE 18:28:17 29° ENE 18:33:04 10° SE
Helios 1B rocket 2.9 18:24:46 10° N 18:28:51 69° WNW 18:32:58 10° SSW
MSX 3.9 18:23:47 10° SSE 18:29:28 61° ENE 18:35:08 10° N
Cosmos 1709 Rocket 4.0 18:25:13 10° S 18:31:19 87° E 18:37:27 10° N
SJ-6B 3.6 18:29:54 10° SE 18:33:39 34° ENE 18:37:19 10° NNE
Cosmos 1869 Rocket 4.2 18:30:46 10° SSW 18:35:10 61° W 18:39:29 10° N
Cosmos 1869 3.4 18:31:55 10° N 18:35:51 80° W 18:39:48 10° S
Cosmos 158 Rocket 4.3 18:31:03 10° NNW 18:35:51 64° WSW 18:40:41 10° S
Cosmos 1356 Rocket 3.8 18:32:42 10° SSE 18:36:38 41° E 18:40:35 10° NNE
Cosmos 389 Rocket 3.3 18:35:29 10° NNE 18:38:38 31° E 18:41:51 10° SSE
CZ-2C R/B 3.6 18:35:20 10° S 18:39:41 42° WSW 18:44:08 10° NNW
Cosmos 1452 Rocket 4.0 18:35:09 10° S 18:39:58 37° ESE 18:44:47 10° NE
In-Cosmos 22 Rocket 4.4 18:34:26 10° S 18:40:16 85° W 18:46:05 10° N
NOSS 3-2 (C) 4.3 18:32:57 10° N 18:40:50 57° ENE 18:48:45 10° SE
NOSS 3-2 (A) 4.1 18:34:26 10° NNW 18:42:30 73° ENE 18:50:35 10° SSE
GPS 2-18 Rocket1 4.2 18:40:58 10° NW 18:44:19 32° NNE 18:47:29 11° E
Lacrosse 5 3.1 18:44:07 10° SSE 18:47:50 20° ESE 18:51:32 10° ENE
Cosmos 2221 Rocket 3.8 18:47:55 10° NNE 18:52:07 46° E 18:56:20 10° SSE
Okean 1-7 3.9 18:49:11 10° NNE 18:52:55 28° E 18:56:30 11° SE
Meteor 2-3 Rocket 4.2 18:52:12 10° SSW 18:57:49 64° W 19:03:21 10° N
GPS 2-04 Rocket1 3.4 18:57:32 10° SSW 19:01:25 37° SE 19:03:57 19° E
Aureole 3 Rocket 3.3 19:07:02 10° NNW 19:10:24 49° W 19:13:23 10° S
Centaur D-1AR AC-40 4.4 18:58:23 10° W 19:14:06 23° SW 19:19:01 10° SSE
FREGAT/IRIS 3.1 19:12:59 10° S 19:16:03 61° W 19:19:06 10° NNW
ALOS 3.5 19:22:01 24° ENE 19:22:01 24° ENE 19:25:12 10° NNE
Resurs 01 Rocket 1.5 19:19:50 13° SSE 19:23:49 89° E 19:28:13 10° NNW
Aurora 2 Rocket 4.3 19:13:17 10° WSW 19:24:02 83° SSE 19:30:30 19° ENE
GPS 2-17 Rocket1 3.7 19:19:36 10° NW 19:24:08 46° NNE 19:25:50 32° ENE
Sich 1 Rocket 3.6 19:22:09 10° S 19:26:39 60° E 19:31:09 10° NNE
Milstar 3 Cent rocket 4.2 19:07:15 10° SW 19:27:21 61° SSE 19:33:37 26° E
Cosmos 1892 4.3 19:24:06 10° SSW 19:27:36 35° W 19:31:06 10° NNW
Meteor 1-26 Rocket 4.3 19:22:44 10° N 19:28:38 89° W 19:34:30 10° S
SWIFT 4.0 19:24:55 10° W 19:28:44 31° NNW 19:31:39 15° NE
ATLAS 5 CENTAUR R/B 3.7 19:32:54 10° NNE 19:37:23 23° ENE 19:37:23 23° ENE
GPS 2-12 Rocket1 4.3 19:34:07 10° SW 19:37:24 27° S 19:37:24 27° S
Spot 2 Rocket 3.9 19:33:31 10° S 19:38:33 61° WSW 19:43:33 10° NNW
Lacrosse 5 rocket 2.0 19:35:00 10° SW 19:39:17 57° WNW 19:43:19 10° NNE
FengYun 1-2 T 4.1 19:38:17 31° SSE 19:41:05 76° ENE 19:46:42 10° N
Cosmos 1908 Rocket 3.4 19:42:07 72° ESE 19:42:11 72° E 19:46:33 10° N
GPS 2-14 Rocket1 4.4 19:41:45 10° NNW 19:44:22 22° N 19:44:22 22° N
FENGYUN 3A 3.8 19:48:20 52° ENE 19:48:20 52° ENE 19:53:21 10° N
Cosmos 2278 Rocket 3.9 19:44:52 10° SW 19:49:53 33° WNW 19:54:55 10° NNW
Cosmos 2154 Rocket 3.8 19:46:14 10° S 19:52:30 79° E 19:58:42 10° N
Meteor 2-10 Rocket 3.4 19:53:06 10° N 19:58:39 81° E 19:58:43 81° E
BLOCK DM-SL R/B 4.0 19:55:19 10° W 20:00:15 90° SSE 20:03:58 43° E
USA 234 4.3 20:06:29 30° S 20:06:29 30° S 20:09:46 10° SSW
Ariane H10 4.4 19:54:21 10° W 20:13:11 62° SSW 20:14:54 55° SSE
COSMOS 2406 4.0 20:07:45 10° N 20:11:31 41° NNE 20:11:31 41° NNE
CENTAUR R/B 2.9 20:11:59 10° NNW 20:20:17 75° ENE 20:20:34 74° E
ARIANE 44L R/B 4.2 20:20:46 10° WSW 21:02:51 - E 20:22:43 36° SW
Lacrosse 5 3.7 20:26:15 10° WSW 20:30:34 28° WNW 20:33:30 17° NNW
Ariane H10-3 4.2 20:29:00 10° W 20:33:36 28° WSW 20:33:36 28° WSW
VEP-3 3.4 20:32:46 10° WSW 20:56:00 - ENE 20:36:45 53° SW
ARIANE 5 R/B 4.4 20:33:48 10° W 20:50:57 65° W 20:50:57 65° W
USA 215 4.1 20:55:06 44° WNW 20:55:06 44° WNW 20:59:29 10° NW
Ariane H10+ 4.2 21:03:29 10° W 21:09:34 28° WNW 21:09:34 28° WNW
